EWG36C LGSA-EDDL

Flight info

Callsign EWG36C
Flight time N/A
Altitude 36000
Route SOKRI UY151 DDM DCT XANIS DCT DIMIS DCT OVVER DCT RODON DCT VAKSU DCT UNIPA DCT DOL DCT SIMBA DCT KEMES DCT TESDU DCT AMETU T852 TINSA T854 DOMUX
Aircraft A321/M-SDE2E3FGIJ1LORWXY/HB1

Departure

Time N/A
Airport Chania International Airport (LGSA)

Arrival

Time 2026-05-05 19:03
Airport Düsseldorf Airport (EDDL)
Time Latitude Longitude Altitude Speed Heading
2026-05-05 17:54 47.88782 13.30840 35815 ft 440 kts 326°
2026-05-05 17:54 47.91445 13.28575 35815 ft 440 kts 326°
2026-05-05 17:55 47.96782 13.24030 35812 ft 440 kts 326°
2026-05-05 17:55 48.02090 13.19519 35806 ft 441 kts 326°
2026-05-05 17:56 48.07417 13.14969 35799 ft 441 kts 326°
2026-05-05 17:56 48.12755 13.10390 35791 ft 441 kts 326°
2026-05-05 17:57 48.18087 13.05811 35787 ft 442 kts 326°
2026-05-05 17:57 48.23357 13.01043 35786 ft 438 kts 318°
2026-05-05 17:58 48.27939 12.95139 35788 ft 436 kts 314°
2026-05-05 17:58 48.32519 12.89113 35785 ft 437 kts 314°
2026-05-05 17:59 48.37103 12.83078 35788 ft 437 kts 314°
2026-05-05 17:59 48.41663 12.77065 35789 ft 438 kts 314°
2026-05-05 18:00 48.46257 12.71002 35793 ft 438 kts 314°
2026-05-05 18:00 48.50847 12.64926 35799 ft 439 kts 314°
2026-05-05 18:01 48.55437 12.58815 35804 ft 439 kts 314°
2026-05-05 18:01 48.60026 12.52677 35806 ft 440 kts 314°
2026-05-05 18:02 48.64623 12.46526 35804 ft 441 kts 314°
2026-05-05 18:02 48.69192 12.40407 35810 ft 442 kts 314°
2026-05-05 18:03 48.73797 12.34213 35814 ft 443 kts 314°
2026-05-05 18:03 48.78407 12.27994 35813 ft 443 kts 314°
2026-05-05 18:04 48.83024 12.21752 35811 ft 444 kts 314°
2026-05-05 18:04 48.87644 12.15508 35818 ft 444 kts 314°
2026-05-05 18:05 48.92234 12.09280 35816 ft 445 kts 314°
2026-05-05 18:05 48.96861 12.02985 35812 ft 446 kts 314°
2026-05-05 18:06 49.01489 11.96671 35811 ft 447 kts 314°
2026-05-05 18:06 49.06127 11.90325 35811 ft 447 kts 314°
2026-05-05 18:07 49.09985 11.85031 35816 ft 448 kts 314°
2026-05-05 18:07 49.14633 11.78645 35820 ft 448 kts 314°
2026-05-05 18:08 49.19284 11.72245 35818 ft 449 kts 314°
2026-05-05 18:08 49.23930 11.65832 35814 ft 449 kts 314°
2026-05-05 18:09 49.28545 11.59430 35812 ft 450 kts 314°
2026-05-05 18:09 49.33192 11.52965 35807 ft 450 kts 314°
2026-05-05 18:10 49.37843 11.46490 35817 ft 451 kts 314°
2026-05-05 18:10 49.42489 11.39992 35826 ft 451 kts 314°
2026-05-05 18:11 49.47108 11.33523 35830 ft 452 kts 314°
2026-05-05 18:11 49.51755 11.27002 35834 ft 452 kts 314°
2026-05-05 18:12 49.56426 11.20497 35833 ft 453 kts 316°
2026-05-05 18:12 49.61323 11.14313 35835 ft 454 kts 319°
2026-05-05 18:13 49.66321 11.08306 35829 ft 455 kts 319°
2026-05-05 18:13 49.68815 11.05273 35673 ft 454 kts 319°
2026-05-05 18:13 49.71110 11.01950 35424 ft 450 kts 308°
2026-05-05 18:13 49.73155 10.98317 35186 ft 459 kts 308°
2026-05-05 18:14 49.75294 10.94496 34929 ft 465 kts 308°
2026-05-05 18:14 49.77386 10.90745 34688 ft 467 kts 308°
2026-05-05 18:14 49.79515 10.86920 34445 ft 468 kts 308°
2026-05-05 18:14 49.81642 10.83086 34201 ft 469 kts 308°
2026-05-05 18:15 49.83774 10.79239 33967 ft 471 kts 308°
2026-05-05 18:15 49.85911 10.75383 33775 ft 472 kts 308°
2026-05-05 18:15 49.88062 10.71502 33824 ft 474 kts 308°
2026-05-05 18:16 49.92366 10.63726 33818 ft 474 kts 308°
2026-05-05 18:16 49.96640 10.55991 33822 ft 474 kts 308°
2026-05-05 18:17 50.00932 10.48170 33817 ft 475 kts 308°
2026-05-05 18:17 50.05224 10.40323 33814 ft 475 kts 308°
2026-05-05 18:18 50.09486 10.32509 33816 ft 476 kts 308°
2026-05-05 18:18 50.13782 10.24612 33819 ft 476 kts 308°
2026-05-05 18:19 50.18097 10.16717 33813 ft 477 kts 308°
2026-05-05 18:19 50.22383 10.08869 33816 ft 477 kts 308°
2026-05-05 18:20 50.26685 10.00949 33813 ft 478 kts 308°
2026-05-05 18:20 50.30982 9.92996 33812 ft 478 kts 308°
2026-05-05 18:21 50.35286 9.85031 33812 ft 475 kts 308°
2026-05-05 18:21 50.37401 9.81111 33811 ft 464 kts 308°
2026-05-05 18:21 50.39453 9.77297 33812 ft 466 kts 307°
2026-05-05 18:22 50.43629 9.69504 33815 ft 466 kts 307°
2026-05-05 18:22 50.47797 9.61699 33814 ft 465 kts 307°
2026-05-05 18:23 50.51963 9.53895 33810 ft 466 kts 307°
2026-05-05 18:23 50.56085 9.46151 33812 ft 456 kts 307°
2026-05-05 18:24 50.60125 9.38526 33814 ft 456 kts 307°
2026-05-05 18:24 50.64195 9.30824 33809 ft 456 kts 307°
2026-05-05 18:25 50.68255 9.23128 33683 ft 456 kts 307°
2026-05-05 18:25 50.69604 9.20574 33185 ft 457 kts 307°
2026-05-05 18:25 50.72286 9.15484 32541 ft 451 kts 307°
2026-05-05 18:25 50.74287 9.11668 32029 ft 448 kts 307°
2026-05-05 18:26 50.76264 9.07885 31525 ft 444 kts 307°
2026-05-05 18:26 50.78221 9.04133 31035 ft 440 kts 307°
2026-05-05 18:26 50.80156 9.00418 30557 ft 436 kts 307°
2026-05-05 18:26 50.82075 8.96724 30117 ft 431 kts 307°
2026-05-05 18:27 50.83980 8.93073 29645 ft 427 kts 308°
2026-05-05 18:27 50.85871 8.89496 29213 ft 421 kts 308°
2026-05-05 18:27 50.87751 8.85973 28773 ft 415 kts 308°
2026-05-05 18:27 50.89436 8.82415 28613 ft 401 kts 301°
2026-05-05 18:28 50.92456 8.75275 28418 ft 378 kts 301°
2026-05-05 18:28 50.95382 8.68229 28025 ft 382 kts 301°
2026-05-05 18:29 50.96836 8.64719 27619 ft 378 kts 301°
2026-05-05 18:29 50.98257 8.61286 27239 ft 376 kts 301°
2026-05-05 18:29 50.99706 8.57778 26454 ft 383 kts 301°
2026-05-05 18:29 51.01184 8.54199 25977 ft 393 kts 301°
2026-05-05 18:30 51.02693 8.50553 25786 ft 394 kts 301°
2026-05-05 18:30 51.04206 8.46897 25579 ft 393 kts 301°
2026-05-05 18:30 51.05704 8.43272 25253 ft 390 kts 301°
2026-05-05 18:30 51.07180 8.39686 24832 ft 387 kts 301°
2026-05-05 18:31 51.08637 8.36134 24403 ft 384 kts 301°
2026-05-05 18:31 51.10093 8.32579 23983 ft 381 kts 301°
2026-05-05 18:31 51.11537 8.29052 23559 ft 377 kts 301°
2026-05-05 18:31 51.12965 8.25560 23084 ft 374 kts 301°
2026-05-05 18:32 51.14378 8.22102 22652 ft 368 kts 301°
2026-05-05 18:32 51.15773 8.18691 22216 ft 364 kts 301°
2026-05-05 18:32 51.17131 8.15358 21804 ft 360 kts 301°
2026-05-05 18:32 51.18488 8.12020 21373 ft 357 kts 301°
2026-05-05 18:33 51.19832 8.08707 20937 ft 354 kts 301°
2026-05-05 18:33 51.21166 8.05415 20522 ft 351 kts 301°
2026-05-05 18:33 51.22488 8.02155 20112 ft 348 kts 301°
2026-05-05 18:33 51.23797 7.98921 19704 ft 345 kts 301°
2026-05-05 18:34 51.25100 7.95705 19287 ft 342 kts 301°
2026-05-05 18:34 51.26372 7.92567 18881 ft 340 kts 301°
2026-05-05 18:34 51.27653 7.89393 18469 ft 338 kts 301°
2026-05-05 18:34 51.28923 7.86244 18068 ft 335 kts 301°
2026-05-05 18:35 51.30183 7.83112 17630 ft 332 kts 301°
2026-05-05 18:35 51.31427 7.80018 17227 ft 328 kts 301°
2026-05-05 18:35 51.32660 7.76958 16840 ft 325 kts 301°
2026-05-05 18:35 51.33876 7.73940 16452 ft 321 kts 301°
2026-05-05 18:36 51.35085 7.70934 16052 ft 318 kts 301°
2026-05-05 18:36 51.36276 7.67958 15669 ft 316 kts 301°
2026-05-05 18:36 51.37453 7.65009 15295 ft 314 kts 301°
2026-05-05 18:36 51.38629 7.62062 14916 ft 312 kts 301°
2026-05-05 18:37 51.39401 7.60129 14665 ft 310 kts 301°
2026-05-05 18:37 51.40894 7.56256 14177 ft 306 kts 295°
2026-05-05 18:37 51.41532 7.53038 13877 ft 307 kts 272°
2026-05-05 18:37 51.41268 7.49586 13658 ft 313 kts 249°
2026-05-05 18:38 51.40731 7.47448 13486 ft 312 kts 244°
2026-05-05 18:38 51.39835 7.44290 13219 ft 310 kts 244°
2026-05-05 18:38 51.38929 7.41163 12957 ft 309 kts 244°
2026-05-05 18:38 51.38019 7.38045 12705 ft 308 kts 244°
2026-05-05 18:39 51.37112 7.34950 12437 ft 307 kts 243°
2026-05-05 18:39 51.36200 7.31857 12174 ft 305 kts 243°
2026-05-05 18:39 51.35292 7.28790 11926 ft 304 kts 244°
2026-05-05 18:39 51.34381 7.25733 11668 ft 303 kts 244°
2026-05-05 18:40 51.33472 7.22700 11415 ft 302 kts 243°
2026-05-05 18:40 51.32562 7.19675 11167 ft 301 kts 243°
2026-05-05 18:40 51.31649 7.16654 10935 ft 300 kts 243°
2026-05-05 18:40 51.30751 7.13690 10828 ft 300 kts 243°
2026-05-05 18:41 51.29838 7.10693 10839 ft 300 kts 243°
2026-05-05 18:41 51.28922 7.07690 10740 ft 299 kts 243°
2026-05-05 18:41 51.28011 7.04708 10398 ft 297 kts 243°
2026-05-05 18:41 51.27114 7.01789 10138 ft 289 kts 243°
2026-05-05 18:42 51.26231 6.98927 9780 ft 286 kts 243°
2026-05-05 18:42 51.25349 6.96083 9378 ft 284 kts 243°
2026-05-05 18:42 51.24473 6.93260 8963 ft 283 kts 243°
2026-05-05 18:42 51.23604 6.90458 8560 ft 281 kts 243°
2026-05-05 18:43 51.22715 6.87680 8150 ft 279 kts 238°
2026-05-05 18:43 51.21624 6.85125 7761 ft 278 kts 234°
2026-05-05 18:43 51.20485 6.82637 7366 ft 277 kts 233°
2026-05-05 18:43 51.19345 6.80168 6992 ft 275 kts 233°
2026-05-05 18:44 51.18210 6.77715 6613 ft 274 kts 233°
2026-05-05 18:44 51.17079 6.75277 6234 ft 273 kts 233°
2026-05-05 18:44 51.15952 6.72845 5836 ft 272 kts 233°
2026-05-05 18:44 51.14840 6.70448 5616 ft 264 kts 233°
2026-05-05 18:45 51.13769 6.68138 5508 ft 253 kts 233°
2026-05-05 18:45 51.12741 6.65925 5370 ft 244 kts 233°
2026-05-05 18:45 51.11755 6.63802 5102 ft 240 kts 233°
2026-05-05 18:45 51.10762 6.61668 4777 ft 239 kts 233°
2026-05-05 18:46 51.09778 6.59548 4425 ft 238 kts 235°
2026-05-05 18:46 51.09163 6.57140 4107 ft 235 kts 267°
2026-05-05 18:46 51.09465 6.54615 4019 ft 235 kts 300°
2026-05-05 18:46 51.10566 6.52769 4019 ft 233 kts 332°
2026-05-05 18:47 51.12099 6.52116 3766 ft 228 kts
2026-05-05 18:47 51.13619 6.52710 3531 ft 222 kts 21°
2026-05-05 18:47 51.15010 6.53563 3437 ft 205 kts 23°
2026-05-05 18:47 51.16276 6.54355 3415 ft 184 kts 24°
2026-05-05 18:48 51.17406 6.55055 3383 ft 165 kts 22°
2026-05-05 18:48 51.18442 6.55731 3231 ft 158 kts 30°
2026-05-05 18:48 51.19227 6.56951 3063 ft 159 kts 54°
2026-05-05 18:48 51.19893 6.58345 2872 ft 157 kts 53°
2026-05-05 18:49 51.20558 6.59731 2660 ft 157 kts 53°
2026-05-05 18:49 51.21216 6.61104 2446 ft 156 kts 53°
2026-05-05 18:49 51.21872 6.62472 2237 ft 155 kts 52°
2026-05-05 18:49 51.22525 6.63835 2029 ft 153 kts 52°
2026-05-05 18:50 51.23165 6.65170 1786 ft 151 kts 51°
2026-05-05 18:50 51.23799 6.66493 1587 ft 150 kts 51°
2026-05-05 18:50 51.24424 6.67799 1400 ft 143 kts 51°
2026-05-05 18:50 51.25001 6.69006 1197 ft 135 kts 51°
2026-05-05 18:51 51.25575 6.70205 1002 ft 136 kts 50°
2026-05-05 18:51 51.26149 6.71406 809 ft 137 kts 50°
2026-05-05 18:51 51.26734 6.72628 630 ft 139 kts 50°
2026-05-05 18:51 51.27365 6.73938 628 ft 168 kts 50°
2026-05-05 18:52 51.28107 6.75448 1562 ft 171 kts 50°
2026-05-05 18:52 51.28841 6.76913 2434 ft 166 kts 51°
2026-05-05 18:52 51.29621 6.78384 2741 ft 186 kts 50°
2026-05-05 18:52 51.30654 6.79849 2983 ft 212 kts 28°
2026-05-05 18:53 51.32108 6.80237 2996 ft 218 kts 354°
2026-05-05 18:53 51.33482 6.79199 3004 ft 223 kts 319°
2026-05-05 18:53 51.34275 6.77071 3012 ft 229 kts 285°
2026-05-05 18:53 51.34471 6.74540 3010 ft 230 kts 274°
2026-05-05 18:54 51.34553 6.72013 3010 ft 230 kts 274°
2026-05-05 18:54 51.34549 6.69451 2999 ft 231 kts 261°
2026-05-05 18:54 51.33904 6.67109 3005 ft 233 kts 236°
2026-05-05 18:54 51.32990 6.65003 3005 ft 230 kts 234°
2026-05-05 18:55 51.32046 6.62939 3004 ft 230 kts 233°
2026-05-05 18:55 51.31093 6.60879 3010 ft 230 kts 233°
2026-05-05 18:55 51.30136 6.58817 3032 ft 230 kts 233°
2026-05-05 18:55 51.29199 6.56792 3032 ft 229 kts 233°
2026-05-05 18:56 51.28250 6.54740 3033 ft 229 kts 233°
2026-05-05 18:56 51.27304 6.52685 3030 ft 229 kts 233°
2026-05-05 18:56 51.26351 6.50621 3038 ft 229 kts 234°
2026-05-05 18:56 51.25398 6.48563 3032 ft 229 kts 232°
2026-05-05 18:57 51.24459 6.46535 3033 ft 229 kts 233°
2026-05-05 18:57 51.23502 6.44492 3034 ft 231 kts 233°
2026-05-05 18:57 51.22451 6.42575 3036 ft 229 kts 216°
2026-05-05 18:57 51.20986 6.41698 3035 ft 226 kts 181°
2026-05-05 18:58 51.19482 6.42251 3029 ft 223 kts 147°
2026-05-05 18:58 51.18498 6.43941 3029 ft 200 kts 110°
2026-05-05 18:58 51.18293 6.46102 3034 ft 195 kts 87°
2026-05-05 18:58 51.18371 6.48268 3030 ft 197 kts 83°
2026-05-05 18:59 51.18483 6.50430 3035 ft 195 kts 84°
2026-05-05 18:59 51.18603 6.52583 3041 ft 194 kts 83°
2026-05-05 18:59 51.18722 6.54756 3038 ft 198 kts 81°
2026-05-05 18:59 51.19147 6.56805 3056 ft 201 kts 58°
2026-05-05 19:00 51.19996 6.58627 2864 ft 204 kts 52°
2026-05-05 19:00 51.20860 6.60373 2572 ft 193 kts 52°
2026-05-05 19:00 51.21632 6.61981 2315 ft 174 kts 52°
2026-05-05 19:00 51.22341 6.63459 2059 ft 160 kts 52°
2026-05-05 19:01 51.22969 6.64769 1869 ft 142 kts 51°
2026-05-05 19:01 51.23565 6.66004 1658 ft 139 kts 51°
2026-05-05 19:01 51.24144 6.67226 1491 ft 135 kts 51°
2026-05-05 19:01 51.24714 6.68409 1289 ft 135 kts 50°
2026-05-05 19:02 51.25288 6.69608 1065 ft 137 kts 50°
2026-05-05 19:02 51.25864 6.70813 907 ft 135 kts 51°
2026-05-05 19:02 51.26434 6.72009 710 ft 136 kts 49°
2026-05-05 19:02 51.27006 6.73210 547 ft 135 kts 49°
2026-05-05 19:03 51.27580 6.74408 332 ft 136 kts 50°
2026-05-05 19:03 51.28157 6.75619 134 ft 136 kts 50°
2026-05-05 19:03 51.28669 6.76683 117 ft 99 kts 55°
2026-05-05 19:03 51.28970 6.77316 115 ft 28 kts 53°
2026-05-05 19:04 51.29025 6.77503 117 ft 12 kts 97°
2026-05-05 19:04 51.28983 6.77597 114 ft 12 kts 142°
2026-05-05 19:04 51.28926 6.77646 118 ft 9 kts 180°
2026-05-05 19:04 51.28875 6.77584 116 ft 10 kts 232°
2026-05-05 19:05 51.28828 6.77482 116 ft 12 kts 234°
2026-05-05 19:05 51.28773 6.77362 116 ft 14 kts 232°
2026-05-05 19:05 51.28750 6.77316 114 ft 4 kts 231°
2026-05-05 19:05 51.28728 6.77273 115 ft 6 kts 230°
2026-05-05 19:06 51.28696 6.77209 117 ft 8 kts 232°
2026-05-05 19:06 51.28657 6.77127 114 ft 10 kts 233°
2026-05-05 19:06 51.28610 6.77026 115 ft 12 kts 233°
2026-05-05 19:06 51.28553 6.76906 115 ft 15 kts 232°
2026-05-05 19:07 51.28486 6.76769 116 ft 17 kts 232°
2026-05-05 19:07 51.28437 6.76667 114 ft 18 kts 234°
2026-05-05 19:07 51.28329 6.76437 117 ft 21 kts 233°
2026-05-05 19:07 51.28238 6.76245 116 ft 22 kts 233°
2026-05-05 19:08 51.28179 6.76124 116 ft 14 kts 232°
2026-05-05 19:08 51.28129 6.76031 115 ft 10 kts 214°
2026-05-05 19:08 51.28059 6.76057 116 ft 11 kts 175°
2026-05-05 19:08 51.27976 6.76047 115 ft 13 kts 180°
2026-05-05 19:09 51.27897 6.76047 118 ft 11 kts 180°
2026-05-05 19:09 51.27842 6.76112 118 ft 10 kts 96°
2026-05-05 19:09 51.27840 6.76193 118 ft 2 kts 90°
2026-05-05 19:09 51.27840 6.76229 118 ft 4 kts 91°
2026-05-05 19:10 51.27839 6.76290 118 ft 7 kts 91°
2026-05-05 19:10 51.27850 6.76358 116 ft 0 kts 57°
2026-05-05 19:10 51.27853 6.76364 117 ft 2 kts 52°
2026-05-05 19:10 51.27867 6.76386 117 ft 1 kts 44°
2026-05-05 19:11 51.27868 6.76387 117 ft 0 kts 44°